Temp
-11 -10 -10 -11 -11 -11 -10 -10 -10 -10 -11 -10 -10 -10 -10 -10 -10 -10 -10 -10 -10 -11 -11 -10 -10 -10 -10 -10 -10 -10 -10 -10 -11 -11 -11 -11 -11 -11 -11 -11 -11 -11 -11 -11
-11 -10 -11 -11 -11 -11 -11 -11 -11 -11 -11 -10 -10 -10 -10 -10 -10 -10 -10 -10 -11 -10 -11 -11 -10 -10 -10 -10 -10 -10 -10 -10 -10 -10 -10 -11 -11 -11 -11 -11 -11 -11 -12 -12
-11 -11 -11 -11 -11 -11 -11 -11 -12 -12 -12 -11 -11 -9 -10 -10 -10 -10 -10 -10 -10 -11 -11 -10 -10 -10 -10 -10 -10 -10 -10 -10 -10 -11 -11 -11 -11 -11 -12 -12 -12 -12 -12 -12
-11 -11 -11 -11 -11 -11 -11 -12 -12 -12 -12 -11 -11 -9 -9 -10 -11 -10 -11 -10 -10 -11 -11 -10 -10 -10 -10 -10 -11 -11 -11 -11 -11 -11 -11 -12 -12 -12 -12 -12 -12 -12 -12 -12
-11 -11 -12 -11 -11 -12 -12 -12 -12 -13 -12 -12 -11 -10 -8 -10 -10 -11 -11 -11 -10 -11 -11 -10 -10 -10 -10 -11 -11 -11 -11 -11 -11 -11 -12 -12 -12 -12 -12 -12 -12 -12 -12 -12
-12 -11 -11 -11 -12 -12 -12 -12 -13 -12 -12 -11 -11 -11 -9 -9 -10 -10 -11 -11 -10 -11 -11 -10 -10 -11 -11 -11 -11 -11 -11 -11 -11 -12 -12 -12 -12 -12 -12 -12 -13 -13 -13 -13
-12 -12 -12 -12 -12 -12 -13 -13 -13 -13 -12 -11 -11 -10 -9 -10 -10 -11 -11 -11 -11 -11 -11 -11 -11 -11 -11 -11 -11 -11 -12 -12 -12 -12 -12 -12 -12 -13 -13 -13 -13 -13 -14 -13
-13 -13 -13 -13 -13 -13 -13 -13 -13 -13 -13 -12 -11 -10 -9 -10 -11 -11 -11 -11 -11 -11 -11 -11 -11 -12 -12 -12 -12 -12 -12 -12 -12 -13 -13 -13 -13 -13 -13 -14 -14 -14 -14 -14
-14 -14 -14 -14 -13 -14 -13 -13 -14 -14 -13 -12 -11 -10 -10 -10 -11 -11 -12 -12 -12 -11 -12 -12 -12 -12 -12 -13 -13 -12 -12 -12 -13 -13 -13 -13 -13 -13 -13 -14 -14 -14 -14 -14
-15 -15 -14 -14 -14 -14 -14 -14 -14 -14 -13 -13 -11 -10 -10 -10 -10 -11 -12 -12 -12 -12 -12 -12 -13 -13 -13 -13 -13 -13 -13 -13 -13 -13 -13 -13 -14 -14 -14 -14 -14 -14 -14 -15
-15 -15 -13 -14 -13 -14 -14 -14 -15 -15 -14 -13 -12 -10 -10 -10 -11 -11 -11 -12 -12 -13 -13 -13 -13 -13 -13 -13 -13 -13 -13 -13 -13 -13 -14 -14 -14 -14 -14 -15 -15 -15 -16 -16
-16 -16 -15 -14 -14 -14 -14 -14 -14 -14 -14 -14 -13 -8 -11 -11 -11 -12 -12 -12 -12 -13 -14 -13 -14 -14 -13 -13 -13 -13 -14 -14 -14 -14 -14 -14 -14 -15 -15 -15 -16 -16 -17 -17
-15 -15 -15 -14 -14 -14 -14 -14 -14 -15 -15 -12 -13 -8 -11 -11 -12 -13 -13 -13 -13 -13 -14 -14 -14 -14 -14 -14 -14 -14 -14 -14 -14 -15 -15 -15 -15 -15 -15 -16 -16 -17 -17 -17
-16 -16 -14 -13 -14 -15 -15 -15 -15 -15 -14 -13 -11 -11 -11 -12 -13 -13 -13 -13 -13 -13 -13 -14 -14 -14 -14 -14 -14 -14 -14 -15 -15 -15 -15 -15 -16 -16 -16 -17 -17 -18 -18 -18
-16 -15 -15 -15 -15 -15 -15 -15 -16 -15 -13 -15 -10 -12 -12 -13 -14 -14 -13 -13 -13 -13 -14 -14 -14 -15 -15 -15 -15 -15 -15 -15 -15 -16 -16 -17 -17 -17 -17 -18 -18 -19 -19 -19
-16 -15 -16 -15 -15 -16 -16 -16 -14 -14 -13 -13 -12 -10 -12 -14 -15 -14 -14 -13 -13 -14 -14 -14 -14 -14 -15 -15 -15 -15 -16 -16 -16 -17 -17 -17 -17 -18 -18 -19 -19 -19 -20 -20
-16 -16 -16 -15 -16 -16 -16 -11 -15 -15 -15 -14 -13 -10 -14 -14 -14 -14 -14 -14 -14 -14 -14 -14 -14 -15 -15 -15 -16 -16 -16 -16 -17 -17 -18 -18 -18 -18 -19 -19 -20 -20 -20 -20
-17 -16 -17 -15 -16 -17 -12 -14 -15 -16 -15 -15 -14 -12 -14 -14 -15 -15 -14 -14 -14 -15 -14 -15 -15 -15 -15 -16 -16 -16 -17 -17 -17 -18 -18 -19 -19 -19 -19 -20 -21 -21 -21 -21
-17 -17 -17 -17 -16 -16 -15 -13 -14 -15 -14 -15 -15 -14 -15 -15 -16 -14 -15 -15 -15 -15 -15 -15 -15 -15 -15 -16 -16 -17 -17 -17 -18 -19 -19 -19 -19 -19 -20 -21 -21 -22 -22 -22
-17 -17 -17 -17 -17 -17 -14 -14 -15 -16 -14 -14 -16 -15 -16 -15 -15 -14 -16 -15 -15 -15 -15 -15 -15 -15 -16 -17 -17 -17 -18 -19 -19 -19 -19 -19 -20 -21 -21 -22 -22 -23 -23 -24
-17 -17 -17 -16 -17 -17 -15 -15 -16 -16 -14 -15 -16 -16 -16 -16 -16 -15 -16 -16 -16 -16 -16 -16 -16 -17 -17 -18 -18 -18 -19 -19 -19 -19 -20 -21 -21 -22 -22 -23 -23 -24 -24 -25
-17 -17 -17 -17 -17 -17 -17 -17 -17 -17 -16 -16 -16 -17 -16 -16 -16 -16 -16 -16 -17 -17 -17 -17 -17 -18 -18 -18 -18 -19 -19 -20 -20 -21 -21 -21 -21 -22 -23 -24 -24 -25 -25 -26
-18 -18 -18 -18 -18 -18 -18 -18 -17 -17 -17 -17 -17 -17 -17 -17 -17 -17 -17 -17 -18 -18 -18 -18 -18 -18 -19 -19 -19 -20 -20 -21 -21 -21 -21 -22 -23 -23 -24 -25 -25 -26 -27 -27
-19 -18 -18 -19 -18 -18 -18 -18 -18 -18 -18 -18 -18 -18 -18 -18 -18 -18 -18 -18 -18 -19 -19 -19 -20 -20 -20 -20 -21 -21 -21 -21 -21 -22 -22 -23 -24 -25 -25 -26 -26 -27 -27 -28
-20 -20 -19 -19 -19 -19 -19 -19 -19 -19 -19 -19 -19 -19 -19 -19 -19 -19 -19 -20 -20 -20 -20 -20 -21 -21 -21 -21 -21 -21 -22 -22 -22 -23 -23 -24 -25 -26 -26 -26 -27 -27 -28 -28
-20 -20 -20 -20 -19 -19 -19 -19 -19 -19 -19 -19 -19 -19 -19 -20 -20 -20 -20 -20 -21 -21 -21 -21 -21 -21 -21 -22 -22 -22 -22 -23 -24 -24 -25 -25 -26 -26 -27 -27 -28 -28 -29 -30
Height
5831 5834 5839 5839 5837 5839 5839 5839 5840 5840 5837 5836 5836 5837 5837 5837 5838 5841 5842 5842 5843 5843 5844 5843 5842 5843 5843 5843 5843 5843 5843 5842 5843 5843 5843 5843 5842 5841 5840 5839 5838 5838 5836 5834
5825 5828 5830 5830 5830 5831 5832 5831 5832 5831 5828 5827 5827 5827 5829 5828 5832 5833 5833 5836 5836 5836 5836 5834 5835 5835 5835 5836 5835 5836 5836 5836 5836 5836 5836 5835 5834 5833 5833 5832 5830 5829 5828 5826
5816 5819 5821 5821 5823 5823 5824 5824 5824 5821 5819 5815 5815 5814 5819 5822 5822 5825 5826 5828 5829 5828 5827 5827 5827 5827 5827 5827 5827 5828 5828 5828 5829 5828 5827 5826 5825 5824 5823 5822 5822 5821 5819 5817
5805 5811 5813 5814 5815 5814 5815 5815 5814 5813 5808 5807 5807 5798 5810 5816 5815 5817 5819 5818 5818 5819 5819 5818 5818 5819 5819 5819 5819 5820 5820 5820 5819 5819 5818 5817 5817 5816 5815 5814 5813 5812 5810 5806
5799 5800 5802 5803 5807 5805 5807 5805 5804 5802 5799 5795 5797 5794 5800 5808 5810 5811 5810 5810 5808 5809 5810 5808 5808 5809 5809 5810 5810 5811 5811 5811 5811 5810 5809 5809 5808 5808 5807 5806 5804 5801 5799 5795
5787 5788 5792 5795 5796 5795 5796 5796 5794 5792 5790 5781 5794 5791 5780 5798 5801 5802 5800 5801 5800 5799 5799 5798 5798 5799 5799 5800 5801 5801 5802 5802 5801 5800 5800 5799 5799 5798 5797 5795 5792 5790 5786 5783
5777 5779 5780 5782 5785 5785 5785 5786 5783 5780 5777 5774 5782 5780 5776 5783 5791 5791 5792 5789 5788 5788 5788 5789 5789 5789 5790 5790 5791 5792 5792 5792 5791 5791 5790 5790 5789 5788 5786 5784 5781 5777 5774 5771
5764 5767 5770 5773 5774 5775 5774 5773 5772 5769 5769 5768 5768 5765 5771 5771 5776 5781 5781 5778 5778 5778 5778 5778 5778 5779 5780 5781 5782 5782 5782 5782 5782 5781 5780 5779 5778 5776 5774 5771 5769 5765 5762 5759
5751 5752 5756 5760 5760 5762 5761 5759 5769 5760 5758 5755 5757 5758 5760 5762 5764 5766 5768 5768 5768 5769 5768 5768 5768 5770 5770 5771 5772 5772 5772 5772 5771 5770 5770 5768 5767 5764 5762 5760 5756 5753 5749 5746
5738 5739 5742 5745 5748 5748 5749 5754 5753 5752 5750 5747 5745 5747 5749 5751 5752 5755 5757 5758 5759 5759 5760 5760 5760 5760 5760 5761 5762 5762 5762 5761 5761 5760 5759 5757 5755 5753 5750 5746 5743 5739 5735 5730
5726 5727 5727 5731 5733 5739 5740 5738 5740 5742 5739 5740 5738 5738 5738 5739 5742 5742 5744 5747 5749 5748 5748 5748 5749 5750 5751 5752 5752 5752 5751 5750 5749 5748 5747 5745 5742 5740 5737 5732 5728 5723 5718 5712
5714 5711 5714 5715 5718 5722 5724 5725 5726 5729 5734 5731 5726 5722 5729 5732 5733 5732 5732 5733 5736 5738 5738 5738 5739 5741 5742 5742 5741 5740 5740 5739 5738 5736 5734 5731 5728 5724 5720 5717 5713 5708 5701 5695
5695 5693 5700 5703 5705 5703 5706 5714 5719 5718 5717 5715 5716 5715 5720 5724 5725 5722 5721 5721 5722 5724 5725 5726 5728 5730 5730 5729 5729 5728 5728 5726 5725 5722 5718 5715 5712 5708 5704 5700 5697 5691 5684 5678
5676 5677 5683 5687 5696 5696 5696 5700 5703 5703 5700 5702 5703 5708 5709 5709 5710 5710 5710 5710 5711 5711 5712 5713 5716 5716 5715 5716 5715 5715 5714 5713 5709 5706 5703 5700 5696 5692 5687 5682 5678 5673 5666 5661
5661 5664 5669 5677 5680 5681 5681 5685 5687 5685 5691 5684 5694 5692 5700 5699 5699 5698 5695 5695 5698 5700 5701 5703 5703 5702 5702 5702 5701 5699 5698 5695 5693 5690 5686 5682 5678 5674 5669 5664 5659 5654 5649 5643
5645 5651 5655 5660 5665 5665 5665 5670 5671 5669 5672 5671 5678 5680 5682 5687 5685 5683 5684 5683 5684 5685 5686 5687 5687 5688 5687 5686 5684 5683 5681 5678 5676 5673 5670 5665 5660 5656 5652 5647 5642 5637 5631 5625
5630 5637 5638 5641 5647 5648 5644 5657 5657 5659 5659 5660 5657 5670 5665 5666 5668 5670 5670 5670 5672 5673 5673 5673 5674 5673 5672 5671 5669 5667 5666 5663 5660 5657 5654 5649 5644 5639 5635 5630 5625 5620 5614 5606
5617 5621 5621 5628 5625 5619 5638 5641 5644 5641 5645 5645 5646 5655 5650 5649 5651 5655 5656 5655 5658 5659 5659 5659 5658 5658 5657 5655 5653 5651 5649 5647 5644 5641 5637 5632 5627 5623 5619 5614 5608 5601 5594 5587
5606 5609 5607 5607 5607 5611 5619 5626 5627 5625 5633 5635 5633 5638 5636 5635 5634 5640 5641 5643 5643 5642 5641 5642 5642 5641 5641 5640 5638 5635 5632 5631 5628 5625 5620 5615 5611 5607 5601 5596 5590 5583 5576 5569
5591 5594 5593 5593 5591 5591 5608 5610 5612 5608 5611 5620 5621 5625 5621 5618 5617 5630 5622 5623 5624 5626 5626 5625 5624 5624 5623 5622 5620 5618 5616 5614 5612 5607 5602 5599 5595 5590 5584 5578 5572 5565 5557 5549
5575 5575 5572 5578 5575 5577 5591 5593 5593 5590 5606 5600 5601 5604 5602 5601 5604 5608 5606 5607 5608 5609 5608 5606 5605 5605 5604 5603 5603 5602 5599 5597 5593 5590 5586 5582 5577 5571 5566 5560 5553 5545 5538 5531
5558 5560 5561 5564 5561 5564 5576 5576 5580 5582 5580 5582 5583 5582 5584 5585 5588 5590 5590 5591 5592 5592 5591 5590 5589 5589 5588 5587 5586 5585 5583 5579 5576 5573 5569 5564 5559 5553 5547 5539 5532 5526 5519 5512
5543 5545 5546 5550 5551 5555 5558 5561 5563 5565 5565 5566 5566 5566 5568 5570 5571 5572 5572 5573 5573 5575 5575 5575 5575 5573 5571 5569 5568 5566 5564 5562 5559 5555 5550 5544 5538 5532 5525 5518 5512 5506 5498 5492
5528 5531 5532 5533 5540 5542 5542 5545 5548 5551 5550 5551 5552 5553 5554 5555 5555 5555 5555 5555 5556 5556 5556 5556 5556 5555 5554 5552 5550 5548 5546 5542 5538 5533 5528 5523 5517 5511 5505 5499 5492 5486 5478 5472
5514 5517 5520 5521 5526 5528 5529 5531 5534 5535 5536 5537 5539 5540 5540 5540 5540 5540 5541 5541 5541 5542 5542 5541 5539 5538 5536 5533 5530 5527 5523 5519 5515 5511 5507 5503 5498 5493 5487 5480 5473 5467 5461 5455
5501 5504 5505 5508 5511 5514 5516 5517 5519 5520 5520 5522 5524 5524 5525 5526 5527 5527 5527 5527 5527 5526 5525 5524 5521 5519 5517 5514 5510 5507 5503 5499 5496 5493 5489 5484 5479 5473 5467 5460 5454 5449 5443 5435
Wind_Speed
38 37 30 30 34 33 33 34 33 34 36 38 37 34 34 34 31 26 27 29 28 29 28 29 29 29 27 28 28 29 30 29 28 29 30 31 32 30 26 27 28 29 30 33
40 37 35 36 36 35 34 36 35 37 43 46 44 40 37 37 32 30 29 28 29 30 30 33 32 31 31 29 30 31 30 31 32 32 33 33 34 33 32 31 32 32 34 35
43 41 38 39 38 38 36 37 38 43 45 48 47 44 38 35 32 28 28 29 30 31 34 36 35 34 33 32 31 32 32 33 33 34 34 35 35 35 35 34 33 35 37 40
47 43 41 41 40 39 40 41 42 42 45 45 43 46 34 29 32 31 29 32 34 33 34 37 37 36 35 33 32 32 33 34 35 36 36 35 35 36 35 35 37 39 42 45
48 47 44 44 41 41 44 42 41 41 43 46 44 45 33 27 27 28 30 30 33 34 33 37 38 37 37 36 34 33 34 34 35 36 34 34 34 34 35 38 42 43 46 51
51 51 49 46 44 43 42 42 41 44 45 53 41 43 47 29 29 29 32 30 34 35 35 37 36 35 35 34 34 34 34 34 34 33 32 33 34 36 39 42 44 47 52 55
54 53 52 51 48 47 45 41 44 49 51 55 46 47 47 41 33 33 34 37 37 35 32 33 31 34 35 35 34 34 33 33 33 33 34 35 37 40 42 45 48 53 57 60
54 55 52 50 44 41 40 46 50 51 54 55 53 49 42 42 39 34 32 34 34 32 30 31 32 33 32 31 31 32 32 32 33 34 35 38 41 43 45 48 51 55 59 61
52 54 50 46 44 40 44 47 35 42 43 46 45 44 41 42 44 40 31 30 30 29 30 31 33 33 35 35 34 33 33 34 33 34 36 40 43 46 49 51 54 58 60 63
46 49 52 50 50 48 46 45 44 45 48 51 52 46 43 44 42 39 36 31 27 27 30 33 35 36 33 32 33 36 37 37 37 38 39 42 46 48 51 54 58 60 63 66
45 49 52 49 48 45 43 47 46 45 49 49 51 48 47 47 44 39 38 29 24 26 29 32 32 31 32 34 35 37 39 40 40 42 45 49 52 55 58 60 62 63 64 67
50 49 54 55 53 51 50 52 52 49 47 52 55 48 47 43 40 38 39 37 31 27 31 33 31 32 36 37 37 38 38 40 44 49 52 54 55 57 60 63 66 68 68 70
49 57 55 56 57 58 55 50 47 47 49 54 54 47 46 42 41 41 39 41 39 36 34 35 35 35 38 39 39 41 43 46 49 52 55 57 59 60 62 66 68 71 72 73
50 56 56 56 51 51 50 48 45 48 55 54 51 48 47 45 41 40 42 42 41 41 41 41 37 37 40 42 45 46 48 48 51 55 58 61 62 64 65 67 69 72 72 73
53 52 53 48 48 52 52 52 52 59 57 59 51 52 45 45 40 41 44 44 41 41 42 41 41 45 46 48 49 52 53 54 55 57 59 61 64 67 68 68 67 70 72 73
50 52 54 55 52 53 56 57 61 63 61 61 56 54 49 40 43 45 47 49 49 47 46 47 48 49 50 52 53 55 57 57 59 60 59 61 65 67 68 68 69 71 71 73
53 47 50 55 53 52 58 54 53 51 50 52 57 50 48 46 46 44 45 48 46 45 47 48 47 50 52 54 54 54 56 59 58 57 60 65 66 65 68 67 69 69 71 75
59 55 54 52 56 63 55 53 52 53 52 52 53 47 49 51 49 45 45 47 47 47 49 50 53 55 55 57 57 55 56 59 61 59 62 63 65 67 68 68 66 70 75 76
58 64 66 66 65 63 58 55 57 57 54 56 55 51 54 54 53 55 54 52 53 55 58 58 58 58 58 58 59 59 60 60 59 59 60 66 68 70 67 67 71 73 75 78
61 61 62 63 66 69 57 56 58 62 62 59 56 53 56 60 63 56 53 58 59 60 59 59 61 61 59 57 57 57 56 55 60 64 69 72 68 65 68 69 71 74 76 76
58 60 60 61 64 67 65 65 65 69 64 63 59 56 57 59 60 59 59 60 61 61 60 60 59 58 55 52 52 54 57 61 66 69 67 65 66 66 68 71 72 72 73 74
58 58 59 59 58 68 60 62 62 58 58 59 59 59 60 60 59 57 58 57 57 57 56 55 54 53 53 54 56 58 60 63 64 63 66 67 67 68 69 70 71 72 73 74
53 54 55 56 55 52 52 50 49 54 55 58 60 60 60 59 58 58 59 55 52 50 49 50 53 55 55 57 58 60 63 63 66 68 67 66 66 68 69 69 71 71 73 75
54 54 53 52 51 51 51 50 52 52 54 55 56 56 56 55 53 52 52 52 52 52 51 51 53 55 56 56 59 61 64 65 67 65 65 66 67 67 67 69 72 74 75 72
52 48 47 49 50 51 52 51 51 51 52 50 49 47 47 48 48 47 47 46 46 47 49 52 54 57 60 62 63 64 64 65 66 66 66 66 67 67 70 73 74 73 70 72
52 51 47 50 52 54 54 54 53 54 54 53 50 50 48 47 48 48 49 50 51 53 55 58 61 63 64 64 64 66 68 67 66 66 67 68 70 73 74 71 69 69 70 69
Wind_Direction
255 260 267 267 269 275 279 282 280 284 281 283 282 279 279 277 276 273 264 260 262 263 266 270 270 271 274 275 272 273 272 272 276 280 283 279 278 272 265 265 268 273 279 284
258 262 264 267 272 276 277 279 284 282 284 281 278 277 271 273 276 270 265 265 267 266 266 270 273 275 275 272 271 269 269 270 276 281 281 278 273 269 265 265 269 275 281 288
260 263 264 269 273 277 276 277 280 281 278 280 280 273 271 271 271 268 267 268 270 269 266 269 271 276 277 272 267 265 266 269 274 277 277 273 269 266 263 263 272 278 282 290
261 263 269 269 273 274 276 278 278 278 277 278 274 276 266 265 270 274 279 274 269 268 268 267 270 273 274 271 267 266 267 269 272 276 277 272 271 271 268 269 277 282 288 293
262 264 265 270 273 272 279 276 273 272 272 273 273 279 277 262 263 274 274 271 270 270 269 270 271 271 271 267 266 268 269 272 276 280 279 275 276 273 272 276 281 285 290 292
263 266 269 269 271 272 271 272 272 270 271 270 275 277 277 276 274 275 276 276 272 271 268 269 270 268 266 265 266 268 271 274 278 279 277 275 276 278 281 283 285 288 290 292
266 266 268 268 268 267 268 268 267 267 266 272 275 270 278 284 279 277 278 278 275 274 272 269 266 262 263 264 266 269 271 273 276 275 275 277 281 283 285 288 289 290 293 296
266 265 266 270 269 265 260 257 259 271 270 272 271 273 277 281 282 283 283 280 270 272 267 263 263 263 263 262 264 268 272 275 277 277 277 280 282 283 285 287 288 291 294 295
267 267 260 257 260 256 256 257 268 265 269 274 276 274 273 278 288 290 287 275 267 264 265 263 260 258 258 263 266 269 270 272 273 276 278 279 281 283 285 286 288 291 293 295
263 263 263 261 258 249 255 263 262 263 270 272 273 278 281 286 287 288 288 286 270 263 262 261 259 259 258 259 263 266 266 268 274 277 281 283 284 285 285 284 286 290 291 291
257 259 262 260 257 257 258 261 264 263 264 273 279 271 276 282 292 287 284 287 275 263 260 256 256 255 254 258 261 263 265 268 274 280 282 284 285 285 285 285 285 288 291 293
258 257 258 261 260 258 256 259 259 263 275 277 272 268 280 282 287 287 283 286 280 264 255 258 259 254 253 257 262 265 270 276 279 280 281 283 286 287 288 288 289 290 292 293
255 250 253 258 259 258 258 262 268 266 269 269 273 270 280 279 276 279 272 271 273 263 256 253 254 257 258 260 263 267 272 278 283 284 284 287 288 289 291 291 292 291 292 293
256 255 255 257 264 264 260 263 265 263 265 273 272 275 277 281 276 269 269 270 267 261 256 255 258 261 261 264 268 274 278 282 286 287 287 289 290 290 290 290 290 290 292 294
258 257 260 257 261 260 263 260 261 265 270 271 273 271 273 272 278 276 273 269 269 265 265 266 264 264 266 272 277 279 282 283 286 288 288 289 289 288 290 290 290 291 293 295
266 265 261 258 260 258 261 261 264 266 267 274 277 271 274 280 266 264 266 268 267 268 266 264 263 267 271 275 276 279 283 285 289 289 288 286 286 288 289 289 290 292 294 296
266 260 262 259 259 263 260 261 267 268 262 272 269 272 271 261 267 265 264 262 264 268 269 269 270 270 271 272 275 278 281 285 285 283 282 283 284 286 285 287 289 292 295 297
264 265 265 262 262 262 256 255 256 260 260 272 273 270 271 262 263 265 266 267 267 267 269 269 268 271 274 273 275 278 279 278 278 279 280 282 281 281 284 286 293 294 296 296
248 255 259 261 263 264 258 258 257 263 257 267 268 268 266 269 272 265 269 269 268 269 271 272 273 272 271 271 272 273 274 274 274 278 275 275 277 280 288 294 295 294 293 293
247 250 251 255 259 261 264 262 263 266 264 266 269 266 264 265 266 269 270 268 269 271 273 273 273 273 271 270 272 271 268 267 268 269 271 276 285 290 292 292 290 291 291 293
247 247 251 254 256 258 260 263 263 266 270 272 271 266 264 266 269 267 267 268 271 273 273 273 272 271 270 268 267 266 266 266 269 273 279 285 290 290 289 288 289 290 291 291
251 250 253 255 259 260 263 265 265 265 266 266 265 267 268 269 269 269 271 273 274 272 270 269 270 271 273 272 271 268 267 271 275 280 286 289 289 287 288 290 291 290 290 292
250 253 252 253 257 259 262 263 261 261 261 263 266 269 270 270 271 272 274 274 273 273 274 274 273 274 274 271 268 268 272 276 282 287 288 288 288 289 289 290 289 290 292 293
250 249 251 253 256 257 257 255 259 259 259 261 263 266 268 269 269 269 270 272 273 275 275 273 269 268 267 268 271 276 282 287 287 287 288 288 288 288 289 289 290 291 292 291
252 249 250 250 253 252 254 256 258 259 261 263 266 269 270 270 271 272 273 272 272 271 268 266 268 270 273 279 282 286 286 286 287 287 287 287 287 288 289 290 290 290 288 289
256 251 260 257 256 257 258 259 261 266 271 274 276 271 266 266 269 270 270 270 269 270 272 274 275 278 282 285 285 285 285 284 284 285 286 286 288 288 288 287 286 287 289 290